This demonstration page uses our WeatherBlox Daily Observations layout. Learn more.

Left ArrowRight Arrow

Hourly Observations for May 19, 2020

Temp ( °F °C ) Dew Point ( °F °C ) Humidity (%) Winds ( mph kmh ) Pressure ( in mb ) Visibility ( mi km ) Precip ( " mm )
12:51 am 00:51 Clear 74 23.3 30 -1.1 20 20 NNW 7 11 29.73 1007 10 16.0934 0 0
1:51 am 01:51 Clear 73 22.8 32 0 22 22 NW 9 15 29.72 1007 10 16.0934 0 0
2:51 am 02:51 Clear 68 20 31 -0.6 25 25 SE 5 7 29.73 1007 10 16.0934 0 0
3:51 am 03:51 Clear 64 17.8 29 -1.7 27 27 ESE 3 6 29.74 1007 10 16.0934 0 0
4:51 am 04:51 Clear 62 16.7 28 -2.2 28 28 E 3 6 29.75 1007 10 16.0934 0 0
5:51 am 05:51 Sunny 63 17.2 29 -1.7 28 28 NE 7 11 29.76 1008 10 16.0934 0 0
6:51 am 06:51 Sunny 71 21.7 31 -0.6 23 23 ESE 5 7 29.76 1008 10 16.0934 0 0
7:51 am 07:51 Sunny 79 26.1 30 -1.1 17 17 E 7 11 29.76 1008 10 16.0934 0 0
8:51 am 08:51 Sunny 83 28.3 30 -1.1 15 15 ESE 9 15 29.75 1008 10 16.0934 0 0
9:51 am 09:51 Sunny 86 30 30 -1.1 13 13 VRB 6 9 29.74 1007 10 16.0934 0 0
10:51 am 10:51 Sunny 90 32.2 30 -1.1 12 12 SSW 14 22 29.72 1007 10 16.0934 0 0
11:51 am 11:51 Sunny 91 32.8 28 -2.2 10 10 SW 13 20 29.71 1006 10 16.0934 0 0
12:51 pm 12:51 Sunny 92 33.3 27 -2.8 10 10 SW 9 15 29.69 1005 10 16.0934 0 0
1:51 pm 13:51 Sunny 94 34.4 27 -2.8 9 9 SW 14 22 29.65 1004 10 16.0934 0 0
2:51 pm 14:51 Sunny 94 34.4 26 -3.3 9 9 WNW 10 17 29.64 1004 10 16.0934 0 0
3:33 pm 15:33 Sunny 95 35 17 -8.3 6 6 S 20 31 29.51 999 10 16.0934 0 0
3:51 pm 15:51 Sunny 94 34.4 19 -7.2 6 6 W 6 9 29.64 1004 10 16.0934 0 0
4:51 pm 16:51 Sunny 94 34.4 20 -6.7 7 7 SW 12 19 29.63 1003 10 16.0934 0 0
5:51 pm 17:51 Sunny 91 32.8 21 -6.1 8 8 W 20 31 29.64 1004 10 16.0934 0 0
6:51 pm 18:51 Sunny 87 30.6 25 -3.9 10 10 W 16 26 29.64 1004 10 16.0934 0 0
7:51 pm 19:51 Clear 83 28.3 25 -3.9 12 12 W 20 31 29.65 1004 10 16.0934 0 0
8:51 pm 20:51 Clear 79 26.1 24 -4.4 13 13 WNW 15 24 29.68 1005 10 16.0934 0 0
9:51 pm 21:51 Clear 76 24.4 32 0 20 20 NW 16 26 29.71 1006 10 16.0934 0 0
10:51 pm 22:51 Clear 72 22.2 34 1.1 25 25 WNW 16 26 29.73 1007 10 16.0934 0 0
11:51 pm 23:51 Clear 70 21.1 33 0.6 26 26 NW 15 24 29.75 1008 10 16.0934 0 0

Powered by AerisWeather